Location: Los Gatos B&B
(42.6926°N, 77.0646°W)
Time: 16:34:47
(UTC-04:00)

Daily predictions for brighter satellites

Satellite Brightness Start Highest point End
(mag) Time Altitude Azimuth Time Altitude Azimuth Time Altitude Azimuth
Cosmos 1655 Rocket 4.1 20:27:13 10° N 20:33:36 68° E 20:39:53 10° SSE
Cosmos 2242 Rocket 3.7 20:30:14 10° S 20:34:45 89° E 20:39:13 10° N
Cosmos 1862 3.4 20:31:19 10° N 20:35:21 66° E 20:39:22 10° SSE
USA 229 DEB 4.0 20:30:16 10° S 20:36:41 46° ESE 20:43:14 10° NE
USA 229 4.0 20:30:24 10° S 20:36:48 46° ESE 20:43:20 10° NE
Cosmos 1408 3.0 20:35:26 10° NNW 20:39:06 68° W 20:42:41 10° S
Cosmos 2279 Rocket 4.0 20:33:04 10° S 20:39:13 68° E 20:45:24 10° NNE
Cosmos 2322 Rocket 3.0 20:35:50 10° SW 20:41:22 59° WNW 20:46:56 10° NNE
Cosmos 1825 2.7 20:39:48 10° NNW 20:43:35 63° W 20:47:19 10° S
FALCON 9 R/B 2.4 20:44:13 10° SW 20:45:57 15° S 20:47:23 10° SSE
Cosmos 2360 Rocket 2.2 20:42:05 10° S 20:47:39 64° ESE 20:53:16 10° NNE
Cosmos 1428 Rocket 4.5 20:42:52 10° N 20:49:00 76° E 20:55:07 10° SSE
ATLAS 5 CENTAUR R/B 2.6 20:46:36 10° NW 20:52:38 79° WSW 20:59:10 10° SSE
H-2A R/B 4.3 20:50:57 10° SSW 20:54:32 37° W 20:58:07 10° NNW
Cosmos 1908 Rocket 3.8 20:52:45 10° N 20:56:59 49° ENE 21:01:12 10° SSE
COSMOS 2428 3.3 20:52:03 10° SSE 20:57:06 34° ESE 21:02:11 10° NE
Resurs 01 Rocket 2.8 20:55:53 10° S 21:00:08 45° W 21:04:26 10° NNW
USA 267 3.4 20:53:58 10° NE 21:00:32 85° NW 21:07:06 10° SW
BREEZE-M DEB (TANK) 3.9 20:59:12 10° WNW 21:02:23 60° N 21:11:15 10° E
SJ-11-01 4.4 20:57:55 10° SSE 21:02:30 60° ENE 21:07:07 10° N
Helios 1A 3.0 20:59:50 10° SSE 21:04:04 86° E 21:08:21 10° NNW
Cosmos 1939 Rocket 3.0 21:01:10 10° SSE 21:05:07 58° ENE 21:09:02 10° N
Atlas Centaur 2 3.6 21:02:36 10° SW 21:07:52 28° S 21:12:51 14° SE
CZ-4B DEB 2.5 21:06:09 10° SSE 21:09:05 73° ENE 21:12:07 10° N
Cosmos 2322 3.7 21:04:33 10° SSW 21:10:16 82° ESE 21:16:00 10° NNE
Cosmos 1733 Rocket 4.1 21:07:23 10° NNW 21:11:41 47° W 21:15:57 10° SSW
Cosmos 1782 Rocket 4.0 21:07:42 10° N 21:11:52 42° ENE 21:15:10 15° SE
Abrixas rocket 3.7 21:09:19 10° WNW 21:12:20 32° N 21:15:18 10° ENE
Okean 1-7 3.7 21:08:41 10° SSE 21:12:41 35° E 21:16:41 10° NNE
Sich 1 Rocket 3.6 21:08:16 10° N 21:12:47 75° E 21:17:19 10° SSE
SL-16 R/B 4.1 21:08:36 10° WSW 21:13:45 35° WNW 21:18:56 10° N
Cosmos 1606 4.4 21:13:16 15° E 21:13:57 16° E 21:16:18 10° NE
YAOGAN 6 3.1 21:11:36 16° SE 21:14:06 40° ENE 21:17:29 10° N
Meteor 1-25 Rocket 4.4 21:16:11 10° N 21:21:38 51° ENE 21:25:49 17° SSE
Cosmos 968 Rocket 3.9 21:19:58 10° NNW 21:25:08 63° WSW 21:30:18 10° S
Cosmos 1844 Rocket 2.9 21:20:35 10° NNW 21:26:04 55° ENE 21:29:48 20° SE
CZ-4C R/B 3.7 21:19:50 10° NNW 21:26:16 38° NE 21:31:55 16° ESE
Meteor 2-10 Rocket 3.9 21:21:06 10° SSW 21:26:56 79° W 21:32:41 10° N
Meteor 1-14 Rocket 4.2 21:22:15 10° N 21:27:59 80° E 21:33:26 12° SSE
Cosmos 2237 Rocket 3.4 21:26:55 19° ESE 21:28:09 20° E 21:32:12 10° NE
Cosmos 2278 Rocket 3.4 21:27:39 10° N 21:32:30 28° NE 21:35:33 18° E
Cosmos 2333 4.2 21:27:02 10° S 21:32:38 60° ESE 21:38:19 10° NNE
Okean 2 Rocket 3.4 21:28:21 10° N 21:32:47 51° ENE 21:35:19 23° SE
USA 234 3.4 21:30:18 18° ESE 21:35:17 70° NE 21:41:48 10° NW
Cosmos 2333 Rocket 2.9 21:32:00 15° SSE 21:36:04 33° ESE 21:41:09 10° NE
Helios 1B rocket 3.4 21:33:24 10° N 21:37:22 49° WNW 21:41:20 10° SSW
Cosmos 1703 Rocket 3.9 21:41:03 10° SSW 21:45:28 67° W 21:49:52 10° N
Cosmos 1633 3.8 21:44:58 10° NNE 21:48:07 26° ENE 21:48:20 26° E
Envisat 4.1 21:44:01 10° S 21:48:49 43° W 21:53:40 10° NNW
Cosmos 2219 Rocket 2.3 21:43:59 10° S 21:49:23 52° ESE 21:54:51 10° NNE
SPOT 5 2.9 21:57:52 35° SE 21:59:41 60° ENE 22:04:10 10° N
SeaSat 1 3.3 21:58:47 27° E 22:00:39 37° NE 22:05:12 10° NNW
NOSS 0 Rocket 4.1 22:00:21 18° S 22:04:39 50° ESE 22:10:34 10° NE
ERS-1 Rocket 3.3 22:01:58 21° S 22:05:16 64° WSW 22:10:17 10° NNW
Cosmos 2151 Rocket 3.7 22:03:15 10° N 22:07:39 58° E 22:08:40 45° SE
H-2A R/B 2.5 22:06:42 35° ESE 22:08:02 43° ENE 22:12:41 10° N
Cosmos 1674 Rocket 4.1 22:15:43 38° E 22:15:43 38° E 22:19:31 10° NNE
Cosmos 1570 Rocket 3.9 22:11:36 18° SSW 22:15:37 81° ESE 22:20:55 10° NNE
Okean 1 Rocket 4.2 22:12:58 10° NNE 22:16:48 28° ENE 22:16:48 28° ENE
Landsat 7 4.4 22:16:56 38° E 22:17:43 41° ENE 22:22:11 10° N
NOSS 3-1 (C) 3.3 22:13:42 10° SW 22:19:28 87° NW 22:26:00 10° NE
MetOp-B 4.3 22:17:11 30° S 22:19:52 71° WSW 22:25:14 10° NNW
Cosmos 1782 3.2 22:18:24 30° SSW 22:20:14 63° W 22:24:14 10° N
Cosmos 1602 4.0 22:17:18 10° N 22:20:56 52° ENE 22:20:56 52° ENE
ASTEX 1 3.9 22:21:11 40° E 22:21:51 43° ENE 22:26:32 10° N
YAOGAN 11 4.3 22:20:57 39° SSW 22:22:23 64° WSW 22:26:42 10° NNW
Iridium 4 Rocket 4.0 22:21:05 10° NNE 22:24:24 32° ENE 22:24:24 32° ENE
H-2A R/B 2.8 22:27:25 38° ENE 22:27:29 38° ENE 22:31:34 10° N
DMSP B5D2-2 4.5 22:23:28 10° NNE 22:28:29 42° E 22:28:35 42° ESE
Cosmos 2208 Rocket 4.0 22:25:08 20° SSW 22:28:55 86° WNW 22:34:15 10° NNE
Cosmos 1346 Rocket 2.7 22:31:35 73° ENE 22:31:35 73° ENE 22:35:22 10° NNE
Terra 2.4 22:32:31 40° E 22:32:50 41° ENE 22:37:17 10° N
Meteor 1-27 Rocket 3.6 22:33:10 45° S 22:34:55 75° E 22:40:29 10° NNE
NOSS 3-1 (A) 3.3 22:31:31 10° SW 22:37:18 88° NW 22:43:51 10° NE
ATLAS 2AS CENTAUR R/B 3.9 22:39:31 29° E 22:39:31 29° E 22:45:19 10° NE
COSMOS 2428 4.2 22:36:03 10° SW 22:41:17 37° WNW 22:46:35 10° N
Cosmos 2150 Rocket 4.4 22:36:53 10° N 22:42:12 50° ENE 22:42:57 47° E
ARGOS 3.6 22:41:15 36° SSW 22:43:12 57° W 22:48:31 10° NNW
Cosmos 1898 Rocket 3.4 22:38:46 10° NNW 22:43:57 68° ENE 22:44:33 62° ESE
Cosmos 1980 3.6 22:42:14 30° SSW 22:45:07 88° WNW 22:50:49 10° NNE
SL-08 R/B 4.3 22:39:25 10° N 22:45:35 89° W 22:47:23 49° S
Cosmos 1300 Rocket 3.5 22:43:23 10° N 22:47:37 80° NE 22:47:37 80° NE
Cosmos 1844 4.5 22:42:42 10° NW 22:48:01 43° WSW 22:49:48 33° SSW
Cosmos 1553 Rocket 3.9 22:46:05 39° S 22:48:36 87° W 22:54:49 10° N
Abrixas rocket 3.9 22:46:04 10° WNW 22:47:58 32° WNW 22:47:58 32° WNW
Cosmos 1606 4.2 22:48:18 26° WSW 22:49:26 32° WNW 22:52:53 10° NNW
SL-16 R/B 2.9 22:53:21 38° E 22:53:21 38° E 22:57:40 10° NE
Cosmos 2084 4.4 22:51:42 10° NW 22:54:45 36° W 22:54:45 36° W
SPOT 1/Viking Rocket 3.9 22:54:59 46° SSW 22:56:10 57° W 23:01:19 10° NNW
Atlas Centaur 2 4.1 22:51:10 10° WSW 22:55:28 23° SSW 22:55:28 23° SSW
ATLAS 3B R/B 3.8 22:54:21 10° NNW 23:00:28 33° NE 23:03:13 24° E
Cosmos 2315 Rocket 4.4 23:01:58 43° E 23:01:58 43° E 23:07:48 10° NNE
Meteor 1-11 Rocket 3.9 22:57:25 10° NNW 23:02:53 63° W 23:04:01 51° SW
Cosmos 1814 Rocket 4.1 23:06:53 59° ENE 23:06:53 59° ENE 23:11:17 10° NNE
Cosmos 1844 Rocket 4.5 23:05:23 10° NW 23:09:30 21° W 23:11:29 18° SW
ATLAS CENTAUR R/B 3.2 23:12:45 24° NE 23:12:45 24° NE 23:14:25 10° NE
Cosmos 2237 Rocket 2.6 23:08:38 27° SW 23:11:41 60° WNW 23:17:21 10° NNE
Cosmos 1378 Rocket 4.0 23:13:22 57° N 23:13:22 57° N 23:16:57 10° N
Okean 3 4.2 23:14:08 48° N 23:14:08 48° N 23:17:12 10° N
CZ-4 R/B 4.2 23:08:18 10° NNE 23:12:15 54° NE 23:12:15 54° NE
Cosmos 468 Rocket 4.0 23:13:08 68° WSW 23:13:42 77° WNW 23:19:03 10° NNE
CZ-4C R/B 3.1 23:08:09 10° NW 23:15:15 62° WSW 23:17:07 49° S
Cosmos 883 Rocket 4.3 23:14:58 71° SE 23:15:27 76° E 23:21:34 10° N
Cosmos 1386 Rocket 4.5 23:09:41 10° N 23:16:05 82° W 23:17:08 64° SSW
Cosmos 2278 Rocket 2.7 23:11:23 10° NW 23:16:47 46° WSW 23:17:25 45° SW
Meteor 2-9 4.5 23:11:44 10° N 23:17:06 86° ENE 23:17:06 86° ENE
CZ-4B R/B 4.0 23:13:01 10° NNE 23:16:37 47° NE 23:16:37 47° NE
USA 234 4.0 23:17:39 34° SW 23:18:33 36° SW 23:24:29 10° WNW
Cosmos 2333 Rocket 3.5 23:14:51 10° SW 23:20:13 39° WNW 23:25:38 10° NNE
IGS 5A 4.4 23:25:05 46° NW 23:25:05 46° NW 23:28:14 10° NNW
Cosmos 332 Rocket 4.3 23:26:46 53° NNE 23:26:46 53° NNE 23:30:28 10° NNE
Geosat 4.3 23:21:01 10° NNE 23:25:04 57° NE 23:25:04 57° NE
Cosmos 841 Rocket 4.2 23:28:09 43° NE 23:28:09 43° NE 23:31:47 10° NNE
Cosmos 1536 4.1 23:23:08 10° NNW 23:26:02 38° NW 23:26:02 38° NW
Cosmos 1709 Rocket 3.9 23:20:46 10° N 23:27:11 77° E 23:27:37 73° ESE
Cosmos 2219 Rocket 4.2 23:29:03 10° WSW 23:33:39 25° NW 23:38:18 10° N
deb Chang Zheng 4 4.5 23:31:06 10° N 23:34:48 47° NW 23:34:48 47° NW
SeaSat 1 3.7 23:38:34 31° W 23:38:34 31° W 23:42:34 10° NW
USA 81 4.4 23:46:54 61° NNE 23:46:54 61° NNE 23:51:17 10° N
H-2A R/B 3.7 23:47:19 22° W 23:47:38 22° W 23:51:27 10° NW
Cosmos 1455 Rocket 4.4 23:50:57 10° N 23:53:44 36° N 23:53:44 36° N
